Fort Madison
Monday 11:35 PM
Temperature75° (82°/64°)
Dew Point63°
Relative Humidity65
%
Visibility10
mi
Pressure1015.2
mb
Wind DirectionSSW
200°
Wind Speed13
mph
(G21)
Precipitation Today0.00"

Last 30 Observations

Time PresWx Temp DP Feels RH% Vsby Pressure Ceiling Direction Speed 1h Precip
11:15 PM 75° 63° 65
%
10
mi
1015.2
mb
SSW
210°
14
mph
(G21)
0.00"
10:55 PM 75° 63° 65
%
10
mi
1015.6
mb
SSW
210°
11
mph
(G17)
0.00"
10:35 PM 75° 63° 65
%
10
mi
1015.2
mb
SSW
200°
13
mph
0.00"
10:15 PM 75° 63° 65
%
10
mi
1015.2
mb
SSW
200°
14
mph
(G18)
0.00"
9:55 PM 75° 63° 65
%
10
mi
1015.2
mb
SSW
200°
13
mph
0.00"
9:35 PM 77° 63° 61
%
10
mi
1015.2
mb
S
190°
10
mph
0.00"
9:15 PM 77° 63° 61
%
10
mi
1015.2
mb
S
190°
11
mph
(G17)
0.00"
8:55 PM 77° 63° 61
%
10
mi
1014.9
mb
S
190°
11
mph
0.00"
8:35 PM 79° 63° 58
%
10
mi
1014.9
mb
S
190°
13
mph
0.00"
8:15 PM 79° 63° 58
%
10
mi
1015.2
mb
S
190°
13
mph
(G17)
0.00"
7:55 PM 79° 63° 58
%
10
mi
1015.2
mb
S
190°
14
mph
(G18)
0.00"
7:35 PM 79° 63° 58
%
10
mi
1015.6
mb
S
190°
10
mph
0.00"
7:15 PM 81° 63° 54
%
10
mi
1015.6
mb
SSW
200°
13
mph
0.00"
6:55 PM 81° 63° 54
%
10
mi
1015.6
mb
SSW
200°
16
mph
0.00"
6:35 PM 82° 63° 51
%
10
mi
1015.9
mb
SSW
200°
16
mph
0.00"
6:15 PM 81° 63° 54
%
10
mi
1015.9
mb
S
190°
13
mph
0.00"
5:55 PM 79° 63° 58
%
10
mi
1016.3
mb
S
180°
11
mph
0.00"
5:35 PM 79° 63° 58
%
10
mi
1016.3
mb
S
180°
13
mph
(G21)
0.00"
5:15 PM 79° 63° 58
%
10
mi
1016.6
mb
S
180°
16
mph
(G22)
0.00"
4:55 PM 81° 61° 51
%
10
mi
1016.9
mb
S
190°
16
mph
(G23)
0.00"
4:35 PM 79° 61° 54
%
10
mi
1017.3
mb
S
180°
13
mph
(G23)
0.00"
4:15 PM 79° 63° 58
%
10
mi
1017.3
mb
S
170°
14
mph
0.00"
3:55 PM 79° 63° 58
%
10
mi
1018.0
mb
S
180°
16
mph
0.00"
3:35 PM 77° 61° 57
%
10
mi
1018.0
mb
S
170°
11
mph
0.00"
3:15 PM 77° 63° 61
%
10
mi
1018.6
mb
S
180°
10
mph
0.00"
2:55 PM 75° 61° 61
%
10
mi
1019.0
mb
S
190°
11
mph
0.00"
2:35 PM 75° 61° 61
%
10
mi
1019.0
mb
S
190°
11
mph
0.00"
2:15 PM 77° 61° 57
%
10
mi
1019.3
mb
S
180°
13
mph
0.00"
1:55 PM 77° 61° 57
%
10
mi
1019.7
mb
S
180°
14
mph
(G18)
0.00"
1:35 PM 75° 61° 61
%
10
mi
1019.7
mb
S
180°
14
mph
0.00"